User: anonymous   Login
Location: Pacheco
(37.9835°N, 122.0752°W)
Time: 11:59:08
(UTC+00:00)
Language:

Cosmos 1656 Rocket - Orbit

View from above orbital plane
View from above orbital plane
View from above satellite
View from above satellite

Ground track
Ground track

The orbit data is extracted from the following two-line orbital elements,

1 15772U 85042D   24167.93636934  .00000086  00000-0  60556-4 0  9994
2 15772  71.1087 342.1212 0034395  25.9378  86.5822 14.21635159 24599
Epoch (UTC): 15 June 2024 22:28:22
Eccentricity: 0.0034395
inclination: 71.1087°
perigee height: 795 km
apogee height: 844 km
right ascension of ascending node: 342.1212°
argument of perigee: 25.9378°
revolutions per day: 14.21635159
mean anomaly at epoch: 86.5822°
orbit number at epoch: 2459

The dashed part of the orbit path shows where the satellite is in the earth's shadow,  

DLR